Time,TemperatureF,DewpointF,PressureIn,WindDirection,WindDirectionDegrees,WindSpeedMPH,WindSpeedGustMPH,Humidity,HourlyPrecipIn,Conditions,Clouds,dailyrainin,SolarRadiationWatts/m^2,SoftwareType,DateUTC
2013-06-16 00:00:00,63.3,47.3,29.90,North,5,0.0,0.0,56,0.00,,,0.00,0,Wunderground v.1.15,2013-06-16 07:00:00,
2013-06-16 00:10:00,60.0,45.2,29.90,North,5,0.0,0.0,58,0.00,,,0.00,0,Wunderground v.1.15,2013-06-16 07:10:00,
2013-06-16 00:15:00,60.2,47.1,29.90,North,5,0.0,0.0,62,0.00,,,0.00,0,Wunderground v.1.15,2013-06-16 07:15:00,
2013-06-16 00:20:00,60.8,46.8,29.90,North,5,0.0,0.0,60,0.00,,,0.00,0,Wunderground v.1.15,2013-06-16 07:20:00,
2013-06-16 00:25:00,61.3,48.2,29.90,North,5,0.0,0.0,62,0.00,,,0.00,0,Wunderground v.1.15,2013-06-16 07:25:00,
2013-06-16 00:30:00,61.3,48.2,29.90,North,5,0.0,0.0,62,0.00,,,0.00,0,Wunderground v.1.15,2013-06-16 07:30:00,
2013-06-16 00:35:00,61.1,48.0,29.90,North,5,0.0,0.0,62,0.00,,,0.00,0,Wunderground v.1.15,2013-06-16 07:35:00,
2013-06-16 00:45:00,60.5,46.5,29.90,North,5,0.0,0.0,60,0.00,,,0.00,0,Wunderground v.1.15,2013-06-16 07:45:00,
2013-06-16 00:50:00,59.6,47.8,29.89,North,5,0.0,0.0,65,0.00,,,0.00,0,Wunderground v.1.15,2013-06-16 07:50:00,
2013-06-16 00:55:00,59.8,47.6,29.89,North,5,0.0,0.0,64,0.00,,,0.00,0,Wunderground v.1.15,2013-06-16 07:55:00,
2013-06-16 01:00:00,60.1,48.3,29.89,North,5,0.0,0.0,65,0.00,,,0.00,0,Wunderground v.1.15,2013-06-16 08:00:00,
2013-06-16 01:10:00,59.7,47.5,29.89,North,5,0.0,0.0,64,0.00,,,0.00,0,Wunderground v.1.15,2013-06-16 08:10:00,
2013-06-16 01:20:00,59.4,48.0,29.89,North,5,0.0,0.0,66,0.00,,,0.00,0,Wunderground v.1.15,2013-06-16 08:20:00,
2013-06-16 01:25:00,59.4,48.0,29.90,North,5,0.0,0.0,66,0.00,,,0.00,0,Wunderground v.1.15,2013-06-16 08:25:00,
2013-06-16 01:30:00,59.6,47.8,29.90,North,5,0.0,0.0,65,0.00,,,0.00,0,Wunderground v.1.15,2013-06-16 08:30:00,
2013-06-16 01:35:00,59.2,47.8,29.90,North,5,0.0,0.0,66,0.00,,,0.00,0,Wunderground v.1.15,2013-06-16 08:35:00,
2013-06-16 01:40:00,58.9,47.6,29.90,North,5,0.0,0.0,66,0.00,,,0.00,0,Wunderground v.1.15,2013-06-16 08:40:00,
2013-06-16 01:50:00,58.3,48.2,29.89,North,5,0.0,0.0,69,0.00,,,0.00,0,Wunderground v.1.15,2013-06-16 08:50:00,
2013-06-16 01:55:00,57.7,46.8,29.89,North,5,0.0,0.0,67,0.00,,,0.00,0,Wunderground v.1.15,2013-06-16 08:55:00,
2013-06-16 02:00:00,57.2,46.7,29.90,North,5,0.0,0.0,68,0.00,,,0.00,0,Wunderground v.1.15,2013-06-16 09:00:00,
2013-06-16 02:10:00,56.9,47.2,29.90,North,5,0.0,0.0,70,0.00,,,0.00,0,Wunderground v.1.15,2013-06-16 09:10:00,
2013-06-16 02:15:00,56.7,46.3,29.90,North,5,0.0,0.0,68,0.00,,,0.00,0,Wunderground v.1.15,2013-06-16 09:15:00,
2013-06-16 02:20:00,55.2,46.7,29.90,North,5,0.0,0.0,73,0.00,,,0.00,0,Wunderground v.1.15,2013-06-16 09:20:00,
2013-06-16 02:25:00,55.0,46.9,29.90,North,5,0.0,0.0,74,0.00,,,0.00,0,Wunderground v.1.15,2013-06-16 09:25:00,
2013-06-16 02:30:00,55.0,46.5,29.90,North,5,0.0,0.0,73,0.00,,,0.00,0,Wunderground v.1.15,2013-06-16 09:30:00,
2013-06-16 02:35:00,54.8,46.7,29.90,North,5,0.0,0.0,74,0.00,,,0.00,0,Wunderground v.1.15,2013-06-16 09:35:00,
2013-06-16 02:40:00,55.0,47.2,29.90,North,5,0.0,0.0,75,0.00,,,0.00,0,Wunderground v.1.15,2013-06-16 09:40:00,
2013-06-16 02:45:00,55.0,47.2,29.90,North,5,0.0,0.0,75,0.00,,,0.00,0,Wunderground v.1.15,2013-06-16 09:45:00,
2013-06-16 02:55:00,54.5,46.7,29.90,North,5,0.0,0.0,75,0.00,,,0.00,0,Wunderground v.1.15,2013-06-16 09:55:00,
2013-06-16 03:00:00,54.7,47.3,29.90,North,5,0.0,0.0,76,0.00,,,0.00,0,Wunderground v.1.15,2013-06-16 10:00:00,
2013-06-16 03:10:00,55.0,45.8,29.90,North,355,0.0,0.0,71,0.00,,,0.00,0,Wunderground v.1.15,2013-06-16 10:10:00,
2013-06-16 03:15:00,55.1,44.7,29.90,NNW,331,0.0,0.0,68,0.00,,,0.00,0,Wunderground v.1.15,2013-06-16 10:15:00,
2013-06-16 03:25:00,54.9,44.5,29.90,NNW,331,0.0,0.0,68,0.00,,,0.00,0,Wunderground v.1.15,2013-06-16 10:25:00,
2013-06-16 03:30:00,54.8,44.4,29.90,NNW,331,0.0,0.0,68,0.00,,,0.00,0,Wunderground v.1.15,2013-06-16 10:30:00,
2013-06-16 03:35:00,54.6,44.2,29.90,NNW,331,0.0,0.0,68,0.00,,,0.00,0,Wunderground v.1.15,2013-06-16 10:35:00,
2013-06-16 03:40:00,54.6,44.6,29.90,NNW,331,0.0,0.0,69,0.00,,,0.00,0,Wunderground v.1.15,2013-06-16 10:40:00,
2013-06-16 03:45:00,54.7,44.7,29.90,NNW,331,0.0,0.0,69,0.00,,,0.00,0,Wunderground v.1.15,2013-06-16 10:45:00,
2013-06-16 03:50:00,54.7,44.7,29.90,NNW,331,0.0,0.0,69,0.00,,,0.00,0,Wunderground v.1.15,2013-06-16 10:50:00,
2013-06-16 04:00:00,54.2,44.2,29.90,NNW,331,0.0,0.0,69,0.00,,,0.00,0,Wunderground v.1.15,2013-06-16 11:00:00,
2013-06-16 04:10:00,54.4,44.1,29.91,NNW,331,0.0,0.0,68,0.00,,,0.00,0,Wunderground v.1.15,2013-06-16 11:10:00,
2013-06-16 04:15:00,54.2,44.2,29.90,NNW,331,0.0,0.0,69,0.00,,,0.00,0,Wunderground v.1.15,2013-06-16 11:15:00,
2013-06-16 04:20:00,54.3,44.0,29.90,NNW,331,0.0,0.0,68,0.00,,,0.00,0,Wunderground v.1.15,2013-06-16 11:20:00,
2013-06-16 04:30:00,54.1,43.8,29.90,NNW,331,0.0,0.0,68,0.00,,,0.00,0,Wunderground v.1.15,2013-06-16 11:30:00,
2013-06-16 04:35:00,53.9,44.0,29.90,NNW,331,0.0,0.0,69,0.00,,,0.00,0,Wunderground v.1.15,2013-06-16 11:35:00,
2013-06-16 04:40:00,54.1,43.8,29.90,NNW,331,0.0,0.0,68,0.00,,,0.00,0,Wunderground v.1.15,2013-06-16 11:40:00,
2013-06-16 04:45:00,53.8,43.9,29.90,NNW,331,0.0,0.0,69,0.00,,,0.00,0,Wunderground v.1.15,2013-06-16 11:45:00,
2013-06-16 04:50:00,53.4,43.5,29.91,NNW,331,0.0,0.0,69,0.00,,,0.00,0,Wunderground v.1.15,2013-06-16 11:50:00,
2013-06-16 04:55:00,53.4,43.9,29.91,NNW,331,0.0,0.0,70,0.00,,,0.00,0,Wunderground v.1.15,2013-06-16 11:55:00,
2013-06-16 05:00:00,53.4,43.9,29.91,NNW,331,0.0,0.0,70,0.00,,,0.00,0,Wunderground v.1.15,2013-06-16 12:00:00,
2013-06-16 05:10:00,53.0,43.1,29.91,NNW,331,0.0,0.0,69,0.00,,,0.00,0,Wunderground v.1.15,2013-06-16 12:10:00,
2013-06-16 05:15:00,51.9,42.8,29.91,NNW,331,0.0,0.0,71,0.00,,,0.00,0,Wunderground v.1.15,2013-06-16 12:15:00,
2013-06-16 05:20:00,51.5,42.4,29.91,NNW,331,0.0,0.0,71,0.00,,,0.00,0,Wunderground v.1.15,2013-06-16 12:20:00,
2013-06-16 05:25:00,51.7,43.0,29.91,NNW,331,0.0,0.0,72,0.00,,,0.00,5,Wunderground v.1.15,2013-06-16 12:25:00,
2013-06-16 05:35:00,51.3,42.2,29.91,NNW,331,0.0,0.0,71,0.00,,,0.00,7,Wunderground v.1.15,2013-06-16 12:35:00,
2013-06-16 05:40:00,50.8,42.8,29.91,NNW,331,0.0,0.0,74,0.00,,,0.00,11,Wunderground v.1.15,2013-06-16 12:40:00,
2013-06-16 05:45:00,51.0,43.0,29.91,NNW,331,0.0,0.0,74,0.00,,,0.00,14,Wunderground v.1.15,2013-06-16 12:45:00,
2013-06-16 05:50:00,51.0,42.6,29.91,NNW,331,0.0,0.0,73,0.00,,,0.00,18,Wunderground v.1.15,2013-06-16 12:50:00,
2013-06-16 05:55:00,50.8,42.8,29.92,NNW,331,0.0,0.0,74,0.00,,,0.00,21,Wunderground v.1.15,2013-06-16 12:55:00,
2013-06-16 06:00:00,50.5,42.5,29.92,NNW,331,0.0,0.0,74,0.00,,,0.00,26,Wunderground v.1.15,2013-06-16 13:00:00,
2013-06-16 06:10:00,50.4,42.4,29.92,NNW,331,0.0,0.0,74,0.00,,,0.00,25,Wunderground v.1.15,2013-06-16 13:10:00,
2013-06-16 06:15:00,50.5,42.5,29.92,NNW,331,0.0,0.0,74,0.00,,,0.00,26,Wunderground v.1.15,2013-06-16 13:15:00,
2013-06-16 06:20:00,50.5,42.2,29.92,NNW,331,0.0,0.0,73,0.00,,,0.00,32,Wunderground v.1.15,2013-06-16 13:20:00,
2013-06-16 06:25:00,50.9,42.6,29.92,NNW,331,0.0,0.0,73,0.00,,,0.00,97,Wunderground v.1.15,2013-06-16 13:25:00,
2013-06-16 06:30:00,51.3,42.6,29.92,NNW,331,0.0,0.0,72,0.00,,,0.00,111,Wunderground v.1.15,2013-06-16 13:30:00,
2013-06-16 06:35:00,52.2,43.1,29.92,NNW,330,0.0,0.0,71,0.00,,,0.00,130,Wunderground v.1.15,2013-06-16 13:35:00,
2013-06-16 06:40:00,53.0,43.1,29.93,NW,321,0.0,0.0,69,0.00,,,0.00,146,Wunderground v.1.15,2013-06-16 13:40:00,
2013-06-16 06:45:00,53.7,43.8,29.93,NW,321,0.0,0.0,69,0.00,,,0.00,167,Wunderground v.1.15,2013-06-16 13:45:00,
2013-06-16 06:50:00,54.4,44.1,29.93,NW,317,0.0,0.0,68,0.00,,,0.00,186,Wunderground v.1.15,2013-06-16 13:50:00,
2013-06-16 06:55:00,55.3,44.9,29.93,NW,317,0.0,0.0,68,0.00,,,0.00,176,Wunderground v.1.15,2013-06-16 13:55:00,
2013-06-16 07:00:00,55.9,44.7,29.93,NW,317,0.0,0.0,66,0.00,,,0.00,207,Wunderground v.1.15,2013-06-16 14:00:00,
2013-06-16 07:10:00,56.3,44.7,29.93,NW,317,0.0,0.0,65,0.00,,,0.00,116,Wunderground v.1.15,2013-06-16 14:10:00,
2013-06-16 07:15:00,56.5,45.3,29.93,NW,317,0.0,0.0,66,0.00,,,0.00,62,Wunderground v.1.15,2013-06-16 14:15:00,
2013-06-16 07:20:00,57.1,45.8,29.93,NW,317,0.0,1.0,66,0.00,,,0.00,69,Wunderground v.1.15,2013-06-16 14:20:00,
2013-06-16 07:25:00,57.6,46.3,29.93,NW,317,0.0,1.0,66,0.00,,,0.00,297,Wunderground v.1.15,2013-06-16 14:25:00,
2013-06-16 07:30:00,57.9,46.6,29.93,NW,317,0.0,0.0,66,0.00,,,0.00,320,Wunderground v.1.15,2013-06-16 14:30:00,
2013-06-16 07:35:00,58.7,47.0,29.93,NW,317,0.0,0.0,65,0.00,,,0.00,320,Wunderground v.1.15,2013-06-16 14:35:00,
2013-06-16 07:45:00,59.9,47.7,29.93,NW,317,0.0,0.0,64,0.00,,,0.00,350,Wunderground v.1.15,2013-06-16 14:45:00,
2013-06-16 07:50:00,61.7,48.1,29.93,NW,317,0.0,0.0,61,0.00,,,0.00,366,Wunderground v.1.15,2013-06-16 14:50:00,
2013-06-16 07:55:00,62.7,47.7,29.93,NW,317,0.0,0.0,58,0.00,,,0.00,378,Wunderground v.1.15,2013-06-16 14:55:00,
2013-06-16 08:00:00,62.8,47.8,29.93,NW,317,0.0,0.0,58,0.00,,,0.00,381,Wunderground v.1.15,2013-06-16 15:00:00,
2013-06-16 08:10:00,63.8,48.3,29.93,NW,317,0.0,0.0,57,0.00,,,0.00,424,Wunderground v.1.15,2013-06-16 15:10:00,
2013-06-16 08:15:00,65.1,48.5,29.93,NW,317,0.0,0.0,55,0.00,,,0.00,438,Wunderground v.1.15,2013-06-16 15:15:00,
2013-06-16 08:20:00,65.9,48.8,29.93,NW,317,0.0,0.0,54,0.00,,,0.00,461,Wunderground v.1.15,2013-06-16 15:20:00,
2013-06-16 08:25:00,66.0,48.9,29.92,NNW,338,0.0,0.0,54,0.00,,,0.00,462,Wunderground v.1.15,2013-06-16 15:25:00,
2013-06-16 08:30:00,66.1,49.0,29.92,NNW,338,0.0,0.0,54,0.00,,,0.00,468,Wunderground v.1.15,2013-06-16 15:30:00,
2013-06-16 08:35:00,65.2,48.1,29.92,NNW,338,0.0,0.0,54,0.00,,,0.00,475,Wunderground v.1.15,2013-06-16 15:35:00,
2013-06-16 08:40:00,67.0,49.3,29.92,NNW,338,0.0,0.0,53,0.00,,,0.00,515,Wunderground v.1.15,2013-06-16 15:40:00,
2013-06-16 08:50:00,68.5,49.7,29.92,NNW,338,0.0,0.0,51,0.00,,,0.00,534,Wunderground v.1.15,2013-06-16 15:50:00,
2013-06-16 08:55:00,68.2,49.4,29.92,NNW,337,0.0,0.0,51,0.00,,,0.00,545,Wunderground v.1.15,2013-06-16 15:55:00,
2013-06-16 09:00:00,70.0,49.4,29.92,NNW,341,0.0,0.0,48,0.00,,,0.00,563,Wunderground v.1.15,2013-06-16 16:00:00,
2013-06-16 09:10:00,68.6,48.1,29.92,NNE,19,0.0,0.0,48,0.00,,,0.00,591,Wunderground v.1.15,2013-06-16 16:10:00,
2013-06-16 09:20:00,69.2,48.1,29.92,NNE,13,0.0,0.0,47,0.00,,,0.00,543,Wunderground v.1.15,2013-06-16 16:20:00,
2013-06-16 09:25:00,69.4,48.3,29.92,NNE,12,0.0,0.0,47,0.00,,,0.00,587,Wunderground v.1.15,2013-06-16 16:25:00,
2013-06-16 09:30:00,70.5,48.7,29.92,North,5,0.0,0.0,46,0.00,,,0.00,622,Wunderground v.1.15,2013-06-16 16:30:00,
2013-06-16 09:35:00,70.3,48.5,29.92,North,350,0.0,0.0,46,0.00,,,0.00,480,Wunderground v.1.15,2013-06-16 16:35:00,
2013-06-16 09:40:00,70.6,48.2,29.92,NNE,25,1.0,1.0,45,0.00,,,0.00,679,Wunderground v.1.15,2013-06-16 16:40:00,
2013-06-16 09:45:00,70.1,47.2,29.92,NNE,26,0.0,1.0,44,0.00,,,0.00,691,Wunderground v.1.15,2013-06-16 16:45:00,
2013-06-16 09:55:00,71.1,46.8,29.91,NNW,337,1.0,1.0,42,0.00,,,0.00,668,Wunderground v.1.15,2013-06-16 16:55:00,
2013-06-16 10:00:00,70.1,46.6,29.92,NNW,340,2.0,2.0,43,0.00,,,0.00,606,Wunderground v.1.15,2013-06-16 17:00:00,
2013-06-16 10:10:00,71.0,46.7,29.91,WNW,302,0.0,0.0,42,0.00,,,0.00,731,Wunderground v.1.15,2013-06-16 17:10:00,
2013-06-16 10:15:00,71.1,46.8,29.91,NNE,13,1.0,1.0,42,0.00,,,0.00,761,Wunderground v.1.15,2013-06-16 17:15:00,
2013-06-16 10:25:00,71.3,46.4,29.91,NW,325,3.0,3.0,41,0.00,,,0.00,724,Wunderground v.1.15,2013-06-16 17:25:00,
2013-06-16 10:30:00,71.8,47.5,29.91,NNW,330,1.0,1.0,42,0.00,,,0.00,633,Wunderground v.1.15,2013-06-16 17:30:00,
2013-06-16 10:35:00,71.5,46.6,29.92,WSW,253,1.0,1.0,41,0.00,,,0.00,378,Wunderground v.1.15,2013-06-16 17:35:00,
2013-06-16 10:40:00,71.2,47.6,29.92,NW,313,2.0,2.0,43,0.00,,,0.00,780,Wunderground v.1.15,2013-06-16 17:40:00,
2013-06-16 10:45:00,71.5,46.6,29.92,North,10,2.0,2.0,41,0.00,,,0.00,670,Wunderground v.1.15,2013-06-16 17:45:00,
2013-06-16 10:50:00,70.9,46.7,29.92,North,5,3.0,3.0,42,0.00,,,0.00,633,Wunderground v.1.15,2013-06-16 17:50:00,
2013-06-16 10:55:00,71.1,46.8,29.92,NNE,25,2.0,3.0,42,0.00,,,0.00,661,Wunderground v.1.15,2013-06-16 17:55:00,
2013-06-16 11:00:00,71.1,46.2,29.92,NNE,16,3.0,3.0,41,0.00,,,0.00,631,Wunderground v.1.15,2013-06-16 18:00:00,
2013-06-16 11:10:00,71.9,46.3,29.92,NNW,329,1.0,1.0,40,0.00,,,0.00,802,Wunderground v.1.15,2013-06-16 18:10:00,
2013-06-16 11:15:00,72.5,46.1,29.92,North,355,1.0,1.0,39,0.00,,,0.00,833,Wunderground v.1.15,2013-06-16 18:15:00,
2013-06-16 11:20:00,71.9,45.6,29.92,North,11,0.0,0.0,39,0.00,,,0.00,722,Wunderground v.1.15,2013-06-16 18:20:00,
2013-06-16 11:30:00,73.3,46.8,29.92,NNW,344,1.0,5.0,39,0.00,,,0.00,984,Wunderground v.1.15,2013-06-16 18:30:00,
2013-06-16 11:35:00,73.7,46.5,29.91,NE,38,2.0,5.0,38,0.00,,,0.00,816,Wunderground v.1.15,2013-06-16 18:35:00,
2013-06-16 11:40:00,73.6,45.7,29.91,NNW,327,3.0,3.0,37,0.00,,,0.00,795,Wunderground v.1.15,2013-06-16 18:40:00,
2013-06-16 11:45:00,73.3,46.2,29.91,WNW,301,2.0,3.0,38,0.00,,,0.00,550,Wunderground v.1.15,2013-06-16 18:45:00,
2013-06-16 11:50:00,73.9,46.0,29.91,NE,53,2.0,2.0,37,0.00,,,0.00,591,Wunderground v.1.15,2013-06-16 18:50:00,
2013-06-16 12:00:00,73.7,45.1,29.90,NE,55,2.0,2.0,36,0.00,,,0.00,993,Wunderground v.1.15,2013-06-16 19:00:00,
2013-06-16 12:10:00,74.1,45.4,29.90,NNE,24,1.0,1.0,36,0.00,,,0.00,967,Wunderground v.1.15,2013-06-16 19:10:00,
2013-06-16 12:15:00,75.0,45.5,29.90,NNW,346,1.0,5.0,35,0.00,,,0.00,942,Wunderground v.1.15,2013-06-16 19:15:00,
2013-06-16 12:20:00,76.3,45.1,29.90,ENE,60,0.0,0.0,33,0.00,,,0.00,939,Wunderground v.1.15,2013-06-16 19:20:00,
2013-06-16 12:25:00,75.9,45.5,29.89,NNE,33,1.0,4.0,34,0.00,,,0.00,940,Wunderground v.1.15,2013-06-16 19:25:00,
2013-06-16 12:35:00,76.0,45.6,29.89,North,360,2.0,2.0,34,0.00,,,0.00,958,Wunderground v.1.15,2013-06-16 19:35:00,
2013-06-16 12:40:00,76.0,45.6,29.89,NNW,342,1.0,1.0,34,0.00,,,0.00,977,Wunderground v.1.15,2013-06-16 19:40:00,
2013-06-16 12:45:00,76.3,45.9,29.89,NNW,328,2.0,2.0,34,0.00,,,0.00,867,Wunderground v.1.15,2013-06-16 19:45:00,
2013-06-16 12:50:00,76.6,45.3,29.89,NW,313,3.0,3.0,33,0.00,,,0.00,962,Wunderground v.1.15,2013-06-16 19:50:00,
2013-06-16 12:55:00,77.1,45.8,29.89,NNE,17,2.0,3.0,33,0.00,,,0.00,954,Wunderground v.1.15,2013-06-16 19:55:00,
2013-06-16 13:00:00,76.7,46.2,29.89,WSW,248,1.0,6.0,34,0.00,,,0.00,954,Wunderground v.1.15,2013-06-16 20:00:00,
2013-06-16 13:10:00,76.5,46.8,29.88,NNW,346,3.0,7.0,35,0.00,,,0.00,956,Wunderground v.1.15,2013-06-16 20:10:00,
2013-06-16 13:15:00,77.5,46.1,29.88,North,9,5.0,7.0,33,0.00,,,0.00,956,Wunderground v.1.15,2013-06-16 20:15:00,
2013-06-16 13:20:00,77.2,45.9,29.88,North,5,5.0,7.0,33,0.00,,,0.00,960,Wunderground v.1.15,2013-06-16 20:20:00,
2013-06-16 13:25:00,78.0,45.7,29.88,NNW,348,4.0,7.0,32,0.00,,,0.00,963,Wunderground v.1.15,2013-06-16 20:25:00,
2013-06-16 13:30:00,78.0,45.7,29.88,NW,309,3.0,3.0,32,0.00,,,0.00,976,Wunderground v.1.15,2013-06-16 20:30:00,
2013-06-16 13:40:00,78.2,45.1,29.87,NE,42,3.0,3.0,31,0.00,,,0.00,1002,Wunderground v.1.15,2013-06-16 20:40:00,
2013-06-16 13:45:00,79.5,45.3,29.87,NNW,346,3.0,5.0,30,0.00,,,0.00,1034,Wunderground v.1.15,2013-06-16 20:45:00,
2013-06-16 13:50:00,79.6,45.4,29.87,North,360,5.0,5.0,30,0.00,,,0.00,1011,Wunderground v.1.15,2013-06-16 20:50:00,
2013-06-16 13:55:00,79.3,46.0,29.86,NE,53,4.0,5.0,31,0.00,,,0.00,988,Wunderground v.1.15,2013-06-16 20:55:00,
2013-06-16 14:00:00,79.8,45.6,29.86,NNE,16,5.0,8.0,30,0.00,,,0.00,970,Wunderground v.1.15,2013-06-16 21:00:00,
2013-06-16 14:10:00,79.4,45.3,29.86,NNE,31,8.0,8.0,30,0.00,,,0.00,984,Wunderground v.1.15,2013-06-16 21:10:00,
2013-06-16 14:15:00,79.2,44.2,29.86,NNW,334,6.0,8.0,29,0.00,,,0.00,810,Wunderground v.1.15,2013-06-16 21:15:00,
2013-06-16 14:20:00,79.3,43.4,29.86,NNW,346,6.0,6.0,28,0.00,,,0.00,810,Wunderground v.1.15,2013-06-16 21:20:00,
2013-06-16 14:25:00,78.5,43.6,29.86,NNW,331,5.0,6.0,29,0.00,,,0.00,881,Wunderground v.1.15,2013-06-16 21:25:00,
2013-06-16 14:30:00,80.4,45.2,29.85,NNW,338,3.0,3.0,29,0.00,,,0.00,990,Wunderground v.1.15,2013-06-16 21:30:00,
2013-06-16 14:35:00,81.1,44.9,29.86,NW,321,3.0,6.0,28,0.00,,,0.00,1056,Wunderground v.1.15,2013-06-16 21:35:00,
2013-06-16 14:45:00,79.3,44.3,29.85,NNW,333,4.0,4.0,29,0.00,,,0.00,316,Wunderground v.1.15,2013-06-16 21:45:00,
2013-06-16 14:50:00,79.0,44.0,29.85,NNW,338,2.0,2.0,29,0.00,,,0.00,306,Wunderground v.1.15,2013-06-16 21:50:00,
2013-06-16 14:55:00,79.1,45.9,29.85,NNW,336,1.0,2.0,31,0.00,,,0.00,315,Wunderground v.1.15,2013-06-16 21:55:00,
2013-06-16 15:00:00,78.9,45.7,29.86,North,9,1.0,7.0,31,0.00,,,0.00,345,Wunderground v.1.15,2013-06-16 22:00:00,
2013-06-16 15:10:00,79.0,44.9,29.86,West,269,3.0,3.0,30,0.00,,,0.00,441,Wunderground v.1.15,2013-06-16 22:10:00,
2013-06-16 15:15:00,79.3,44.3,29.85,WSW,238,5.0,8.0,29,0.00,,,0.00,459,Wunderground v.1.15,2013-06-16 22:15:00,
2013-06-16 15:20:00,80.0,44.0,29.85,SW,226,9.0,15.0,28,0.00,,,0.00,350,Wunderground v.1.15,2013-06-16 22:20:00,
2013-06-16 15:25:00,79.8,43.8,29.86,WSW,250,12.0,15.0,28,0.00,,,0.00,573,Wunderground v.1.15,2013-06-16 22:25:00,
2013-06-16 15:30:00,79.0,45.8,29.86,West,265,12.0,14.0,31,0.00,,,0.00,568,Wunderground v.1.15,2013-06-16 22:30:00,
2013-06-16 15:35:00,78.4,46.1,29.86,West,268,13.0,14.0,32,0.00,,,0.00,585,Wunderground v.1.15,2013-06-16 22:35:00,
2013-06-16 15:45:00,76.7,46.2,29.86,WSW,251,14.0,18.0,34,0.00,,,0.00,773,Wunderground v.1.15,2013-06-16 22:45:00,
2013-06-16 15:50:00,77.2,46.7,29.86,West,270,13.0,16.0,34,0.00,,,0.00,772,Wunderground v.1.15,2013-06-16 22:50:00,
2013-06-16 15:55:00,76.9,47.2,29.87,West,262,13.0,16.0,35,0.00,,,0.00,728,Wunderground v.1.15,2013-06-16 22:55:00,
2013-06-16 16:00:00,77.6,47.8,29.86,West,275,11.0,11.0,35,0.00,,,0.00,782,Wunderground v.1.15,2013-06-16 23:00:00,
2013-06-16 16:10:00,77.6,48.5,29.87,West,265,9.0,9.0,36,0.00,,,0.00,606,Wunderground v.1.15,2013-06-16 23:10:00,
2013-06-16 16:20:00,77.9,50.2,29.87,WSW,250,11.0,11.0,38,0.00,,,0.00,805,Wunderground v.1.15,2013-06-16 23:20:00,
2013-06-16 16:25:00,78.1,51.1,29.87,WNW,283,12.0,12.0,39,0.00,,,0.00,775,Wunderground v.1.15,2013-06-16 23:25:00,
2013-06-16 16:30:00,78.8,51.0,29.88,West,263,12.0,15.0,38,0.00,,,0.00,766,Wunderground v.1.15,2013-06-16 23:30:00,
2013-06-16 16:35:00,78.0,51.0,29.87,WSW,252,11.0,15.0,39,0.00,,,0.00,408,Wunderground v.1.15,2013-06-16 23:35:00,
2013-06-16 16:40:00,77.5,50.6,29.87,WSW,237,9.0,9.0,39,0.00,,,0.00,564,Wunderground v.1.15,2013-06-16 23:40:00,
2013-06-16 16:50:00,78.5,51.5,29.87,WSW,250,9.0,11.0,39,0.00,,,0.00,689,Wunderground v.1.15,2013-06-16 23:50:00,
2013-06-16 16:55:00,78.8,50.3,29.87,West,260,9.0,14.0,37,0.00,,,0.00,677,Wunderground v.1.15,2013-06-16 23:55:00,
2013-06-16 17:00:00,78.2,49.8,29.88,WNW,282,10.0,10.0,37,0.00,,,0.00,629,Wunderground v.1.15,2013-06-17 00:00:00,
2013-06-16 17:10:00,77.0,50.1,29.88,West,276,10.0,10.0,39,0.00,,,0.00,708,Wunderground v.1.15,2013-06-17 00:10:00,
2013-06-16 17:15:00,77.2,49.6,29.88,WSW,247,10.0,10.0,38,0.00,,,0.00,728,Wunderground v.1.15,2013-06-17 00:15:00,
2013-06-16 17:25:00,78.2,50.5,29.88,SW,227,10.0,17.0,38,0.00,,,0.00,237,Wunderground v.1.15,2013-06-17 00:25:00,
2013-06-16 17:30:00,77.7,49.3,29.89,West,261,9.0,9.0,37,0.00,,,0.00,167,Wunderground v.1.15,2013-06-17 00:30:00,
2013-06-16 17:35:00,76.7,49.2,29.89,West,263,7.0,11.0,38,0.00,,,0.00,148,Wunderground v.1.15,2013-06-17 00:35:00,
2013-06-16 17:40:00,75.9,49.2,29.89,SW,235,7.0,14.0,39,0.00,,,0.00,121,Wunderground v.1.15,2013-06-17 00:40:00,
2013-06-16 17:45:00,75.2,49.2,29.90,West,262,9.0,14.0,40,0.00,,,0.00,109,Wunderground v.1.15,2013-06-17 00:45:00,
2013-06-16 17:55:00,73.9,50.6,29.90,WSW,254,7.0,9.0,44,0.00,,,0.00,95,Wunderground v.1.15,2013-06-17 00:55:00,
2013-06-16 18:00:00,73.3,50.1,29.91,WSW,252,5.0,5.0,44,0.00,,,0.00,67,Wunderground v.1.15,2013-06-17 01:00:00,
2013-06-16 18:10:00,72.5,49.3,29.90,West,273,7.0,7.0,44,0.00,,,0.00,70,Wunderground v.1.15,2013-06-17 01:10:00,
2013-06-16 18:15:00,72.1,49.0,29.90,WSW,247,7.0,7.0,44,0.00,,,0.00,116,Wunderground v.1.15,2013-06-17 01:15:00,
2013-06-16 18:20:00,71.3,49.4,29.90,WSW,257,7.0,7.0,46,0.00,,,0.00,125,Wunderground v.1.15,2013-06-17 01:20:00,
2013-06-16 18:30:00,71.6,49.1,29.91,WSW,240,8.0,19.0,45,0.00,,,0.00,132,Wunderground v.1.15,2013-06-17 01:30:00,
2013-06-16 18:35:00,71.2,48.2,29.91,WSW,252,10.0,19.0,44,0.00,,,0.00,104,Wunderground v.1.15,2013-06-17 01:35:00,
2013-06-16 18:40:00,70.8,48.4,29.92,West,261,9.0,9.0,45,0.00,,,0.00,113,Wunderground v.1.15,2013-06-17 01:40:00,
2013-06-16 18:45:00,70.7,48.9,29.91,West,268,5.0,9.0,46,0.00,,,0.00,118,Wunderground v.1.15,2013-06-17 01:45:00,
2013-06-16 18:50:00,70.8,49.0,29.91,West,263,4.0,7.0,46,0.00,,,0.00,123,Wunderground v.1.15,2013-06-17 01:50:00,
2013-06-16 18:55:00,70.9,48.5,29.92,WSW,252,3.0,7.0,45,0.00,,,0.00,100,Wunderground v.1.15,2013-06-17 01:55:00,
2013-06-16 19:00:00,71.1,48.7,29.92,WSW,255,4.0,5.0,45,0.00,,,0.00,95,Wunderground v.1.15,2013-06-17 02:00:00,
2013-06-16 19:10:00,70.8,47.8,29.93,West,266,5.0,5.0,44,0.00,,,0.00,70,Wunderground v.1.15,2013-06-17 02:10:00,
2013-06-16 19:15:00,70.4,46.8,29.93,SW,235,8.0,8.0,43,0.00,,,0.00,56,Wunderground v.1.15,2013-06-17 02:15:00,
2013-06-16 19:20:00,69.7,49.1,29.94,WSW,254,8.0,10.0,48,0.00,,,0.00,62,Wunderground v.1.15,2013-06-17 02:20:00,
2013-06-16 19:30:00,67.9,49.6,29.93,West,263,2.0,3.0,52,0.00,,,0.00,46,Wunderground v.1.15,2013-06-17 02:30:00,
2013-06-16 19:35:00,67.9,49.6,29.93,WSW,246,1.0,3.0,52,0.00,,,0.00,58,Wunderground v.1.15,2013-06-17 02:35:00,
2013-06-16 19:40:00,68.3,49.5,29.94,WSW,250,1.0,1.0,51,0.00,,,0.00,148,Wunderground v.1.15,2013-06-17 02:40:00,
2013-06-16 19:45:00,69.1,49.7,29.94,West,262,0.0,1.0,50,0.00,,,0.00,144,Wunderground v.1.15,2013-06-17 02:45:00,
2013-06-16 19:50:00,69.8,49.8,29.94,WNW,289,0.0,0.0,49,0.00,,,0.00,121,Wunderground v.1.15,2013-06-17 02:50:00,
2013-06-16 19:55:00,69.9,48.2,29.94,NW,318,1.0,1.0,46,0.00,,,0.00,114,Wunderground v.1.15,2013-06-17 02:55:00,
2013-06-16 20:00:00,69.6,47.9,29.94,NW,307,1.0,4.0,46,0.00,,,0.00,113,Wunderground v.1.15,2013-06-17 03:00:00,
2013-06-16 20:10:00,69.2,46.9,29.94,West,261,1.0,1.0,45,0.00,,,0.00,42,Wunderground v.1.15,2013-06-17 03:10:00,
2013-06-16 20:15:00,68.6,47.0,29.95,West,261,0.0,1.0,46,0.00,,,0.00,39,Wunderground v.1.15,2013-06-17 03:15:00,
2013-06-16 20:20:00,68.1,46.5,29.95,West,269,0.0,1.0,46,0.00,,,0.00,33,Wunderground v.1.15,2013-06-17 03:20:00,
2013-06-16 20:25:00,67.9,46.3,29.95,West,260,1.0,6.0,46,0.00,,,0.00,28,Wunderground v.1.15,2013-06-17 03:25:00,
2013-06-16 20:35:00,67.3,45.8,29.95,WSW,246,2.0,2.0,46,0.00,,,0.00,21,Wunderground v.1.15,2013-06-17 03:35:00,
2013-06-16 20:40:00,67.0,45.5,29.95,WSW,247,0.0,0.0,46,0.00,,,0.00,16,Wunderground v.1.15,2013-06-17 03:40:00,
2013-06-16 20:45:00,66.7,45.3,29.95,WSW,247,0.0,0.0,46,0.00,,,0.00,12,Wunderground v.1.15,2013-06-17 03:45:00,
2013-06-16 20:50:00,66.3,45.5,29.95,West,276,0.0,0.0,47,0.00,,,0.00,9,Wunderground v.1.15,2013-06-17 03:50:00,
2013-06-16 20:55:00,66.1,45.3,29.95,West,278,0.0,0.0,47,0.00,,,0.00,5,Wunderground v.1.15,2013-06-17 03:55:00,
2013-06-16 21:00:00,65.7,44.9,29.96,West,268,0.0,0.0,47,0.00,,,0.00,0,Wunderground v.1.15,2013-06-17 04:00:00,
2013-06-16 21:05:00,65.5,44.7,29.96,West,268,0.0,0.0,47,0.00,,,0.00,0,Wunderground v.1.15,2013-06-17 04:05:00,
2013-06-16 21:10:00,65.2,45.0,29.96,West,268,0.0,0.0,48,0.00,,,0.00,0,Wunderground v.1.15,2013-06-17 04:10:00,
2013-06-16 21:15:00,64.9,45.3,29.96,West,268,0.0,0.0,49,0.00,,,0.00,0,Wunderground v.1.15,2013-06-17 04:15:00,
2013-06-16 21:20:00,64.6,45.0,29.96,West,268,0.0,0.0,49,0.00,,,0.00,0,Wunderground v.1.15,2013-06-17 04:20:00,
2013-06-16 21:25:00,64.6,45.0,29.97,West,268,0.0,0.0,49,0.00,,,0.00,0,Wunderground v.1.15,2013-06-17 04:25:00,
2013-06-16 21:30:00,64.5,45.4,29.97,West,268,0.0,0.0,50,0.00,,,0.00,0,Wunderground v.1.15,2013-06-17 04:30:00,
2013-06-16 21:40:00,63.9,45.4,29.97,West,268,0.0,0.0,51,0.00,,,0.00,0,Wunderground v.1.15,2013-06-17 04:40:00,
2013-06-16 21:45:00,63.8,45.3,29.98,WNW,288,0.0,6.0,51,0.00,,,0.00,0,Wunderground v.1.15,2013-06-17 04:45:00,
2013-06-16 21:50:00,64.0,45.5,29.98,WSW,254,3.0,9.0,51,0.00,,,0.00,0,Wunderground v.1.15,2013-06-17 04:50:00,
2013-06-16 21:55:00,64.0,46.0,29.98,WSW,250,6.0,9.0,52,0.00,,,0.00,0,Wunderground v.1.15,2013-06-17 04:55:00,
2013-06-16 22:00:00,64.0,46.0,29.98,WSW,238,7.0,7.0,52,0.00,,,0.00,0,Wunderground v.1.15,2013-06-17 05:00:00,
2013-06-16 22:10:00,63.5,45.6,29.98,SW,229,5.0,8.0,52,0.00,,,0.00,0,Wunderground v.1.15,2013-06-17 05:10:00,
2013-06-16 22:15:00,63.2,45.8,29.98,SW,236,3.0,8.0,53,0.00,,,0.00,0,Wunderground v.1.15,2013-06-17 05:15:00,
2013-06-16 22:20:00,62.9,45.5,29.98,SW,236,1.0,1.0,53,0.00,,,0.00,0,Wunderground v.1.15,2013-06-17 05:20:00,
2013-06-16 22:25:00,62.7,45.8,29.99,SW,236,0.0,1.0,54,0.00,,,0.00,0,Wunderground v.1.15,2013-06-17 05:25:00,
2013-06-16 22:30:00,62.2,45.8,29.99,SW,236,0.0,0.0,55,0.00,,,0.00,0,Wunderground v.1.15,2013-06-17 05:30:00,
2013-06-16 22:35:00,62.0,45.6,29.99,SW,236,0.0,0.0,55,0.00,,,0.00,0,Wunderground v.1.15,2013-06-17 05:35:00,
2013-06-16 22:45:00,62.2,45.8,29.99,SW,236,0.0,0.0,55,0.00,,,0.00,0,Wunderground v.1.15,2013-06-17 05:45:00,
2013-06-16 22:50:00,61.8,45.5,29.98,SW,236,0.0,0.0,55,0.00,,,0.00,0,Wunderground v.1.15,2013-06-17 05:50:00,
2013-06-16 22:55:00,61.4,45.6,29.99,SW,236,0.0,0.0,56,0.00,,,0.00,0,Wunderground v.1.15,2013-06-17 05:55:00,
2013-06-16 23:00:00,60.8,45.5,29.99,SW,236,0.0,0.0,57,0.00,,,0.00,0,Wunderground v.1.15,2013-06-17 06:00:00,
2013-06-16 23:10:00,59.9,45.1,29.99,SW,236,0.0,0.0,58,0.00,,,0.00,0,Wunderground v.1.15,2013-06-17 06:10:00,
2013-06-16 23:20:00,60.3,45.5,29.99,SW,236,0.0,0.0,58,0.00,,,0.00,0,Wunderground v.1.15,2013-06-17 06:20:00,
2013-06-16 23:25:00,60.7,45.8,29.99,SW,236,0.0,0.0,58,0.00,,,0.00,0,Wunderground v.1.15,2013-06-17 06:25:00,
2013-06-16 23:30:00,60.8,45.9,29.99,SW,236,0.0,0.0,58,0.00,,,0.00,0,Wunderground v.1.15,2013-06-17 06:30:00,
2013-06-16 23:35:00,60.6,45.7,29.99,SW,236,0.0,0.0,58,0.00,,,0.00,0,Wunderground v.1.15,2013-06-17 06:35:00,
2013-06-16 23:40:00,60.4,45.5,29.99,SW,236,0.0,0.0,58,0.00,,,0.00,0,Wunderground v.1.15,2013-06-17 06:40:00,
2013-06-16 23:45:00,60.2,45.8,29.99,SW,236,0.0,0.0,59,0.00,,,0.00,0,Wunderground v.1.15,2013-06-17 06:45:00,
2013-06-16 23:50:00,59.9,45.5,30.00,SW,236,0.0,0.0,59,0.00,,,0.00,0,Wunderground v.1.15,2013-06-17 06:50:00,
2013-06-16 23:55:00,59.4,45.5,30.00,SSW,193,0.0,0.0,60,0.00,,,0.00,0,Wunderground v.1.15,2013-06-17 06:55:00,